Regional Weather Roundup
Issued by NWS State College, PA

Home | Current Version | Previous Version | Text Only | Print | Product List | Glossary On
Versions: 1 2 3 4 5 6 7 8 9 10 11 12 13 14 15 16 17 18 19 20 21 22 23 24 25 26 27 28 29 30 31 32 33 34 35 36 37 38 39 40 41 42 43 44 45 46 47 48 49 50
000
ASUS41 KCTP 290503
RWRCTP

REGIONAL WEATHER ROUNDUP
NATIONAL WEATHER SERVICE STATE COLLEGE PA
100 AM EDT FRI APR 29 2016

Note: "fair" indicates few or no clouds below 12,000 feet with no
significant weather and/or obstructions to visibility.

* = STATION THAT DOES NOT REPORT PRECIPITATION /E.G. RAIN...SNOW...ETC/
    THUNDER OR FOG.

PAZ002>004-007>009-013>016-020>023-029>032-290600-
WESTERN PENNSYLVANIA

CITY           SKY/WX    TMP DP  RH WIND       PRES   REMARKS
ERIE           CLOUDY    45  41  86 NE7       29.99R
MEADVILLE      CLOUDY    42  42 100 E5        29.96R
FRANKLIN*      CLOUDY    43  39  87 E7        29.98R
NEW CASTLE     CLOUDY    44  43  96 NE5       29.95F
BEAVER COUNTY  NOT AVBL
BUTLER*        CLOUDY    45  41  87 NE6       29.96F
PITTSBURGH INT FOG       47  44  90 N5        29.93F VSB 1
PITTSBURGH     FOG       46  44  93 N5        29.91F VSB 1/2
INDIANA*       CLOUDY    45  45 100 E8        29.97S FOG
LATROBE        CLOUDY    50  50 100 CALM      29.92S
WASHINGTON CO* CLOUDY    48  46  93 CALM      29.93S VSB 1
$$

PAZ004>006-010>012-017>019-024>028-033>037-041-042-045-046-049>053-290600-
CENTRAL PENNSYLVANIA

CITY           SKY/WX    TMP DP  RH WIND       PRES   REMARKS
BRADFORD       CLOUDY    40  38  93 E5        29.98R
DUBOIS         CLOUDY    40  39  97 E10       29.95S FOG
CLEARFIELD     CLOUDY    42  40  92 E7        29.99S FOG
JOHNSTOWN      FOG       42  38  85 NE5       29.93S VSB 1/4
ALTOONA        CLOUDY    42  40  92 E3        29.99S FOG
STATE COLLEGE  CLOUDY    42  41  97 CALM      30.00F FOG
WILLIAMSPORT   CLOUDY    46  43  89 CALM      30.03S
SELINSGROVE    CLOUDY    46  43  89 CALM      30.04S FOG
FT INDIANTOWN  CLOUDY    45  45 100 NE3       30.03F
CAPITAL CITY   LGT RAIN  46  41  82 E6        30.04S
HARRISBURG     DRIZZLE   45  42  89 SE5       30.03S FOG
YORK           CLOUDY    44  42  93 E5        30.02F FOG
$$

PAZ038>040-043-044-047-048-054-055-060>062-067>071-290600-
EASTERN PENNSYLVANIA

CITY           SKY/WX    TMP DP  RH WIND       PRES   REMARKS
SCRANTON       CLOUDY    46  43  89 CALM      30.02S
MOUNT POCONO   CLOUDY    42  38  85 CALM      30.01S
ALLENTOWN      CLOUDY    46  41  81 CALM      30.04F
QUAKERTOWN*    CLOUDY    43  41  93 CALM      30.04F
READING        CLOUDY    44  41  89 NE5       30.03F
LANCASTER      CLOUDY    44  42  93 NE5       30.03S
COATESVILLE    CLOUDY    43  43 100 CALM      30.04S FOG
POTTSTOWN      CLOUDY    42  42 100 NE3       30.05F FOG
BLUE BELL      CLOUDY    41  41 100 E3        30.04S
DOYLESTOWN     CLOUDY    42  41  96 NE3       30.04S
WILLOW GROVE   NOT AVBL
NORTH PHILA    CLOUDY    45  42  89 NE5       30.07R
PHILADELPHIA   CLOUDY    45  41  86 NE10      30.05F
$$




USA.gov is the U.S. government's official web portal to all federal, state and local government web resources and services.